Dewpoint
44 44 43 42 42 43 43 41 42 43 44 43 45 45 44 44 43 39 40 42 38 34 31 30 32 32 28 27 30 29 31 35 35 32 30 31 30 30 28 31 33 31 31 30 31 29 25 30 26 23 26 33 29 31
43 42 42 42 43 43 44 43 43 43 43 42 43 45 44 43 43 38 38 42 41 36 37 42 43 40 31 30 30 35 27 32 35 31 32 31 34 33 29 26 31 29 32 30 30 28 37 30 28 29 32 30 32 31
43 41 42 42 42 43 43 43 43 42 41 42 44 44 44 44 42 37 39 42 38 37 34 37 36 38 44 38 34 33 32 29 34 36 36 36 34 36 32 28 25 31 35 34 32 29 32 34 32 36 33 32 33 34
42 42 41 42 42 43 42 43 42 41 44 45 44 44 43 44 42 40 39 40 35 35 31 34 43 40 44 42 36 35 32 43 41 41 40 38 33 34 32 30 31 31 35 31 32 32 35 36 37 36 36 37 37 36
42 42 43 40 41 42 43 42 42 43 44 44 44 43 44 44 41 41 41 38 36 32 32 34 38 38 45 43 38 36 42 42 43 41 39 37 38 39 39 38 36 35 33 34 33 34 33 31 38 38 38 37 37 36
42 42 42 43 44 43 43 44 44 44 43 43 43 44 42 41 40 36 35 39 40 38 34 30 39 36 43 42 38 38 37 41 40 38 38 38 42 38 37 33 32 35 37 37 35 38 38 38 37 38 39 38 37 35
40 42 42 43 42 42 42 42 42 42 43 43 43 42 40 37 35 31 30 36 41 39 34 30 31 41 45 42 41 39 39 39 40 38 40 38 41 39 39 34 33 37 38 39 39 38 37 36 36 36 37 36 35 34
40 40 41 42 42 42 42 42 43 43 42 41 40 39 36 36 36 34 44 42 38 35 37 29 31 38 46 42 41 46 43 44 43 39 42 39 42 41 38 35 33 36 37 38 37 37 37 36 35 34 34 33 32 31
40 40 40 40 41 41 41 41 42 41 40 40 40 38 36 32 31 38 41 39 39 36 31 31 30 32 42 40 42 41 43 39 42 41 40 41 40 36 34 34 37 37 37 37 35 35 35 35 34 33 34 33 33 32
40 40 40 40 40 40 39 39 39 40 40 39 35 34 30 34 45 41 38 37 37 37 37 31 35 32 39 38 37 38 40 37 35 38 43 39 36 37 39 39 39 38 37 36 35 34 34 33 33 33 33 33 32 30
40 41 40 40 40 40 39 40 40 40 38 35 34 33 38 43 40 37 31 32 33 31 34 34 35 36 41 36 34 37 35 35 32 36 37 36 35 37 39 39 38 37 36 37 37 35 34 34 33 32 31 31 29 28
40 40 40 40 40 40 40 40 38 35 36 37 38 39 37 35 33 31 30 31 31 29 35 34 36 38 39 40 36 36 33 33 31 35 33 31 32 36 38 38 37 37 36 36 37 35 33 32 32 31 30 29 28 28
40 40 40 40 41 40 40 40 39 41 42 42 36 34 33 33 29 27 26 29 29 34 36 37 35 38 39 38 34 34 32 32 34 32 29 29 33 35 36 35 34 33 32 32 32 31 31 30 30 28 27 27 27 27
40 41 40 41 39 40 42 41 42 40 39 34 32 28 30 28 30 30 31 32 35 36 36 37 35 38 37 34 34 31 32 34 31 29 26 30 31 32 33 33 31 30 30 29 29 28 27 27 27 28 28 28 26 25
41 43 42 42 42 41 39 39 39 39 35 31 32 26 28 30 31 31 33 33 33 37 36 36 36 36 33 32 33 32 30 27 27 26 29 30 31 31 30 30 28 27 27 27 27 26 27 27 26 26 26 26 25 24
40 41 42 40 39 38 39 39 38 37 34 30 24 25 26 27 25 27 28 30 32 34 35 35 32 31 30 31 29 27 27 24 25 27 30 30 29 28 28 28 27 27 27 27 27 26 25 24 23 23 23 22 22 21
41 40 40 39 39 38 38 38 36 32 29 27 23 25 24 24 22 24 26 26 30 33 31 32 28 26 30 26 23 24 22 24 27 28 30 30 29 28 28 28 28 27 26 26 25 24 23 21 18 16 14 14 15 17
40 41 40 39 39 38 37 36 32 30 24 24 21 23 23 22 21 21 24 27 30 29 27 23 26 20 19 19 19 21 24 26 27 27 27 28 28 28 28 26 26 25 24 24 24 24 23 20 16 15 14 14 14 14
42 42 41 40 39 36 33 32 33 22 22 23 23 23 23 22 23 22 23 26 26 27 24 21 16 14 15 18 18 22 26 26 22 23 24 25 26 25 25 24 24 23 22 22 21 20 20 18 17 17 17 16 15 16
41 40 39 38 37 33 31 31 32 25 22 23 24 20 20 20 21 21 20 21 20 16 13 12 12 14 15 18 20 23 27 26 23 21 20 21 23 22 23 22 21 21 20 19 19 17 16 16 16 17 17 17 16 15
38 38 38 37 35 33 31 30 29 27 26 23 24 22 21 20 17 14 12 12 12 12 11 14 15 17 19 20 22 23 23 23 22 20 19 17 20 20 19 20 20 19 17 16 15 14 14 14 14 15 15 15 14 14
35 34 34 35 33 32 31 31 30 31 28 26 24 21 19 16 15 14 10 9 9 12 15 15 15 16 15 16 17 19 19 18 18 17 18 18 16 16 16 17 16 14 14 14 13 12 10 10 11 10 11 10 9 8
29 28 26 26 26 27 27 30 27 28 24 25 24 18 17 16 16 11 10 10 11 15 17 16 16 16 15 17 16 16 17 15 14 13 13 13 13 13 12 12 12 11 10 8 7 6 5 4 5 6 6 5 6 5
25 22 21 21 21 20 24 22 23 23 23 20 16 15 15 15 13 9 7 9 12 14 14 15 16 14 14 12 11 13 14 14 12 12 12 8 6 4 4 4 4 5 4 4 4 5 4 4 4 4 3 3 2 2
16 17 19 17 19 18 18 17 17 18 18 18 14 14 14 13 9 7 7 9 10 10 12 13 13 13 10 10 10 10 12 11 8 6 6 6 5 4 3 3 4 4 5 5 4 3 3 3 3 2 1 1 0 1
13 16 15 15 16 14 14 13 14 14 15 13 11 11 11 8 5 5 6 9 9 9 10 11 11 9 8 9 7 6 5 4 3 3 4 5 5 5 5 4 3 3 5 5 4 3 2 2 1 1 1 0 -0 -0
12 13 14 12 14 13 12 11 11 10 9 9 9 7 5 3 3 6 9 10 9 9 11 12 11 9 5 4 4 5 5 5 4 3 3 3 3 4 4 2 2 3 3 3 4 3 2 2 1 0 0 0 0 -0
15 12 9 10 9 8 8 7 6 6 7 7 5 2 2 2 3 8 9 10 11 10 9 7 7 6 6 6 6 5 4 4 3 2 2 1 1 2 1 1 1 0 1 2 3 2 1 1 -0 -1 -2 -2 -2 -2
13 13 9 4 5 4 4 4 4 5 6 6 3 2 2 4 6 9 10 10 11 10 8 5 5 5 4 3 3 4 5 5 -0 -3 -2 -1 0 1 1 1 1 1 1 1 1 1 -0 -0 -2 -3 -4 -3 -3 -3
12 12 7 3 2 3 4 5 4 6 6 6 4 3 3 4 7 10 10 10 8 6 5 4 4 4 4 3 2 1 2 3 3 1 -1 -0 1 1 1 1 1 0 0 0 -0 -1 -1 -2 -2 -3 -4 -4 -4 -5
12 12 7 5 4 5 5 6 6 5 5 4 4 3 2 4 6 7 6 6 6 5 4 3 2 3 3 2 2 1 0 2 0 1 2 2 1 1 1 -0 -0 -0 -1 -1 -2 -2 -3 -3 -4 -4 -5 -6 -7 -7
11 9 7 5 6 7 8 8 8 6 7 5 5 4 4 4 3 4 5 6 5 4 2 4 5 4 3 2 1 1 -2 1 1 1 1 1 1 -0 -1 -1 -2 -2 -2 -2 -3 -4 -5 -5 -5 -6 -6 -7 -8 -9
10 10 10 8 7 7 8 9 7 6 6 5 5 4 3 3 2 4 3 3 6 6 5 6 5 4 2 1 1 1 -1 1 -1 -0 -0 -0 -2 -2 -1 -1 -2 -3 -3 -3 -4 -5 -5 -6 -6 -7 -7 -8 -9 -9
Wind_Speed
35 24 22 21 30 35 42 41 38 45 42 38 34 52 57 57 56 27 19 18 20 10 7 17 22 27 33 28 30 19 20 10 16 13 11 8 6 11 13 9 4 7 11 8 8 9 15 11 12 14 16 4 8 10
28 14 7 4 13 16 30 42 44 43 42 38 40 55 56 57 50 21 16 11 10 10 1 5 9 10 25 33 25 27 19 25 12 13 9 7 4 7 13 11 21 10 10 7 11 8 3 24 15 19 5 8 7 11
27 15 13 14 15 22 33 38 40 40 36 34 45 55 54 54 46 17 16 16 14 5 8 8 11 16 12 21 22 16 15 13 14 7 7 5 6 12 11 14 12 17 9 8 6 10 14 13 17 9 10 10 5 6
35 11 15 20 22 25 31 34 35 34 34 39 53 52 50 46 35 21 20 15 15 7 0 7 3 6 15 20 31 25 16 9 9 11 6 6 7 9 10 13 16 10 13 18 17 17 9 12 17 18 17 9 9 9
32 34 17 9 15 23 27 28 29 32 43 47 47 47 43 40 29 20 18 15 14 11 5 5 7 12 19 25 29 27 11 14 10 9 6 10 4 3 2 2 8 10 12 12 12 12 12 15 2 11 16 18 13 15
30 32 33 36 33 29 28 32 37 43 45 45 44 43 41 36 31 25 7 5 7 3 4 6 3 8 19 25 27 31 23 9 8 10 9 6 4 8 7 14 16 15 10 10 9 2 4 4 5 3 11 11 13 15
25 29 32 34 35 38 40 42 43 42 41 41 40 40 38 31 20 11 6 12 16 9 3 5 7 7 17 22 20 19 23 16 12 9 6 6 7 7 5 13 7 7 9 8 3 1 7 3 4 2 5 8 10 11
22 25 29 33 37 39 40 42 41 43 45 43 40 35 28 20 12 8 8 27 16 9 1 4 8 4 8 10 8 6 9 9 10 9 1 9 4 4 7 14 20 9 5 5 4 2 4 3 4 6 9 14 17 16
21 23 25 28 31 33 37 40 40 42 41 37 33 28 14 6 5 5 25 22 7 6 4 5 5 5 3 6 6 4 3 7 2 6 6 7 7 11 8 13 13 15 9 5 5 3 4 5 8 9 10 12 17 17
22 25 26 28 29 30 31 33 33 36 37 34 22 7 5 6 28 25 14 3 5 5 2 4 4 5 4 4 4 6 3 6 7 9 5 9 18 13 4 0 2 6 5 9 5 2 6 8 9 10 10 10 15 21
23 27 28 29 29 29 29 30 34 37 31 8 4 4 8 25 6 3 5 6 6 6 7 4 5 4 4 6 6 2 5 4 5 3 5 6 7 11 2 4 6 9 9 3 4 4 3 10 16 15 14 14 14 17
26 25 26 26 27 28 28 29 28 13 6 5 8 14 7 3 3 5 6 3 6 8 9 10 5 5 4 3 5 3 4 4 4 1 3 2 4 6 5 8 9 9 8 10 8 11 14 15 15 19 19 19 18 20
30 24 21 22 21 24 27 23 12 3 5 5 4 4 5 2 4 5 9 6 6 6 6 6 4 2 2 4 5 3 4 3 2 2 1 2 6 8 8 12 16 17 19 17 16 20 21 21 21 22 23 20 21 22
30 27 23 21 21 16 11 16 14 9 2 4 2 5 2 3 2 0 3 7 3 4 11 8 4 2 1 3 2 3 2 3 2 2 2 4 4 9 10 12 17 18 19 18 17 21 21 23 23 21 20 19 21 21
22 23 22 17 16 16 19 18 12 6 5 5 6 7 6 3 5 4 3 4 5 7 11 7 5 3 4 4 2 2 2 3 5 2 2 4 6 10 14 14 17 18 18 18 18 21 22 22 24 23 19 19 21 19
19 18 14 20 20 19 12 11 9 4 4 4 8 5 10 5 8 8 9 6 7 3 4 5 4 4 3 3 3 3 1 4 3 2 3 7 11 14 17 18 18 18 19 20 20 22 22 22 23 23 21 20 19 18
13 5 14 20 20 22 21 6 7 6 6 5 6 13 7 5 8 6 7 7 7 1 4 3 4 4 3 4 3 5 4 4 4 7 9 11 14 16 18 19 19 21 23 23 24 23 23 22 21 22 23 19 19 19
6 15 15 13 9 7 5 8 5 6 6 7 5 11 11 10 9 10 11 11 2 4 3 5 5 5 5 3 4 4 6 10 13 14 15 16 17 18 19 24 24 24 25 24 24 22 21 20 20 18 18 16 16 15
18 16 15 14 9 6 4 4 4 5 8 4 5 10 5 5 11 13 14 13 14 13 7 5 7 6 5 5 5 7 8 9 14 16 19 20 19 22 24 25 25 25 23 22 21 20 20 19 16 13 12 11 12 10
25 25 22 17 8 4 4 4 3 6 5 4 4 9 6 6 11 10 18 14 12 7 10 8 7 7 6 8 7 7 9 12 14 20 18 18 18 21 21 21 21 21 21 21 20 19 18 18 16 14 13 12 11 10
13 5 11 6 4 6 5 3 5 5 6 4 5 5 6 11 20 17 13 12 13 8 8 9 9 10 10 11 10 11 16 15 16 16 17 19 16 19 19 18 18 19 19 18 18 18 18 16 13 12 13 12 11 10
4 5 4 5 4 4 5 10 4 3 4 7 5 5 7 9 13 16 12 16 9 11 9 9 12 11 15 18 17 18 19 22 21 20 19 18 19 19 18 16 18 20 19 17 16 16 15 12 11 12 11 10 10 11
4 4 5 7 5 6 4 6 4 6 4 4 4 5 6 6 8 8 8 9 7 11 13 12 14 15 16 18 21 24 20 21 21 20 19 19 19 19 19 18 16 16 17 15 14 13 13 11 13 12 11 11 10 10
7 7 7 6 9 4 3 6 5 5 5 5 5 5 6 6 5 7 7 6 10 11 13 14 10 11 14 19 21 19 17 17 20 19 16 17 20 18 17 17 17 16 14 12 12 12 11 11 10 11 10 10 10 9
7 10 7 8 7 5 5 5 7 6 6 7 5 5 5 4 5 5 4 5 11 12 12 12 13 14 16 16 16 18 17 15 17 20 16 15 15 15 16 16 16 14 11 11 11 10 10 9 9 10 10 10 9 8
9 11 8 9 7 6 6 4 5 7 5 4 5 3 3 4 5 5 3 5 7 9 10 10 10 13 16 14 14 14 13 11 13 18 14 13 12 11 10 9 9 10 10 9 8 8 8 7 8 8 8 8 8 7
8 8 7 7 4 4 6 6 6 7 6 6 3 3 3 5 4 4 4 6 4 7 8 10 11 13 14 13 13 12 13 13 14 14 12 13 13 13 11 10 9 6 6 6 6 6 6 6 6 6 6 6 6 6
7 8 7 8 9 10 5 6 6 6 4 5 2 5 3 3 4 3 4 5 7 9 11 12 11 11 11 11 9 10 11 12 13 13 14 14 12 11 10 9 7 6 6 6 6 5 5 5 5 5 6 6 6 6
7 4 5 10 7 9 9 7 5 5 6 4 3 3 3 4 3 4 5 6 7 8 10 10 9 9 10 11 11 9 5 2 3 7 9 7 5 7 7 6 6 7 6 5 6 6 6 6 5 5 5 4 4 4
5 4 6 7 7 8 7 7 5 5 6 5 6 8 7 5 7 6 5 7 8 9 8 7 5 6 7 7 8 10 10 9 9 6 5 6 5 4 4 4 5 5 4 4 4 3 4 4 3 3 4 4 6 6
2 4 6 6 6 6 8 4 10 8 5 9 11 11 8 5 4 8 7 6 6 6 6 7 6 5 5 5 5 5 6 6 6 7 7 6 4 4 4 4 3 3 3 3 3 3 3 3 3 4 5 5 6 6
5 5 6 5 4 6 2 1 3 3 3 3 3 3 2 2 3 2 2 1 3 4 4 5 6 5 5 5 5 5 5 4 4 4 4 4 4 4 3 3 2 2 2 2 2 2 3 3 4 4 5 5 6 7
4 5 6 6 5 5 4 3 2 3 2 2 2 2 2 1 3 2 2 2 1 2 4 4 5 6 5 4 4 4 3 3 2 2 3 3 4 3 2 2 3 3 3 3 3 3 3 4 4 5 5 6 7 8
Wind_Direction
324 285 275 285 293 256 217 201 197 182 179 177 173 165 170 169 173 172 165 186 185 189 232 215 214 195 196 203 185 185 184 191 183 193 195 185 185 197 213 232 170 202 191 186 200 220 236 155 137 204 235 229 209 209
356 6 7 356 19 106 143 161 165 164 166 168 170 170 168 167 171 148 142 167 171 216 9 330 310 240 212 190 178 170 190 173 170 182 203 196 156 175 197 224 213 253 230 244 212 222 120 184 221 223 252 248 211 205
5 23 56 75 91 116 127 139 147 151 162 170 168 165 162 165 172 150 138 146 152 171 258 247 212 239 230 224 183 173 206 191 196 179 156 202 204 170 187 222 218 220 208 248 252 246 233 213 229 249 239 222 208 195
18 63 71 70 100 116 126 132 142 151 153 155 156 153 156 162 157 141 146 163 170 135 277 254 299 228 249 221 202 200 190 169 155 187 195 196 204 208 217 229 218 214 171 229 254 258 280 255 240 231 224 223 207 195
31 39 80 111 92 117 129 138 139 146 151 145 145 146 152 148 134 121 115 147 179 207 184 276 295 239 257 209 209 206 186 173 168 172 183 209 187 187 218 229 227 195 208 197 228 227 227 260 285 223 218 219 205 179
39 49 57 73 94 113 122 127 130 126 126 132 137 139 126 128 125 122 115 208 193 131 51 319 312 246 255 198 197 200 206 196 205 210 202 217 164 208 233 244 241 220 221 238 243 330 251 291 332 326 222 208 191 185
53 56 66 76 81 86 95 101 106 112 122 130 131 125 132 141 143 143 129 146 144 117 50 310 286 222 218 180 189 197 204 213 223 223 225 217 195 205 228 245 241 229 234 239 260 274 278 243 306 181 161 150 147 145
68 69 74 80 87 91 99 109 110 110 110 113 118 117 108 94 107 121 84 133 125 119 198 276 279 194 187 150 136 153 162 182 202 217 183 214 170 207 243 245 249 220 199 204 210 227 270 101 121 126 138 143 137 140
80 85 87 91 96 97 101 107 114 118 120 121 113 107 87 96 120 82 130 145 151 144 217 236 263 127 58 70 95 78 101 165 86 203 214 190 192 221 225 225 206 205 201 197 148 146 152 163 148 142 154 150 139 139
92 92 97 98 101 105 109 116 121 123 123 117 113 80 109 152 109 118 166 117 147 201 222 261 285 205 69 134 118 127 154 135 174 212 174 220 234 228 219 259 200 168 170 150 140 168 162 150 146 141 149 149 146 137
103 99 97 101 104 108 111 112 116 121 127 118 98 88 112 131 151 114 138 157 174 191 213 241 258 234 13 96 114 45 127 128 169 175 213 217 227 193 33 93 102 123 130 129 74 83 157 161 145 137 126 123 124 121
119 106 102 100 105 109 115 125 134 140 144 127 152 110 95 181 173 152 160 179 214 187 156 183 242 49 34 39 95 98 112 149 171 33 223 220 18 18 70 102 103 105 92 73 84 106 106 110 110 115 108 104 102 102
116 106 94 95 103 120 132 148 179 168 189 204 102 144 194 163 139 176 175 157 180 160 145 150 119 78 97 62 83 134 123 158 165 136 106 6 2 43 77 97 86 82 83 87 94 96 96 93 90 95 100 102 108 104
106 95 107 105 105 109 116 140 189 165 186 79 127 131 156 154 170 316 338 106 57 96 128 117 97 103 89 78 100 112 130 181 139 80 55 2 28 72 70 84 95 89 90 93 93 92 94 92 89 89 95 102 100 96
126 102 98 109 120 106 76 67 70 59 55 44 10 9 39 58 43 42 30 74 42 136 133 129 101 102 60 92 56 122 168 102 62 71 31 32 61 86 85 86 87 85 87 87 90 91 91 93 93 89 86 92 94 93
100 79 81 83 58 48 51 56 36 68 59 55 37 9 354 54 34 29 23 62 10 88 84 58 91 100 99 90 84 28 62 75 75 8 30 80 83 83 86 84 84 89 91 91 88 89 88 87 92 94 86 81 82 89
64 77 101 80 70 54 33 52 34 51 44 36 38 21 11 34 27 11 358 352 324 49 92 86 75 48 100 85 82 21 47 22 33 58 72 87 97 95 93 92 92 94 93 92 90 87 91 94 95 90 89 87 88 88
105 123 94 78 64 52 38 36 61 52 68 30 47 21 45 39 14 14 352 353 358 82 59 65 50 48 46 76 79 39 22 57 64 71 76 78 83 87 94 97 95 95 91 89 90 91 89 90 88 89 92 93 90 89
131 121 103 72 70 79 70 52 58 84 51 43 15 12 24 31 22 19 18 24 51 61 74 63 60 49 38 27 16 15 26 94 93 82 74 71 78 86 88 88 86 85 85 84 84 83 81 79 84 87 86 85 83 74
94 85 77 65 59 72 77 60 70 74 68 115 109 50 50 24 2 22 26 33 58 63 54 47 42 24 360 351 342 332 104 107 112 101 84 72 71 77 77 84 87 89 86 84 81 85 84 78 69 68 69 71 75 67
79 51 51 60 63 63 70 38 76 90 125 98 119 75 54 45 38 34 34 27 57 40 64 38 41 36 31 33 37 63 69 80 81 93 101 90 76 80 79 78 82 83 84 83 83 77 73 71 67 64 66 64 61 55
72 59 81 33 71 64 61 17 61 115 97 137 75 53 43 28 23 24 27 45 61 31 29 35 36 44 53 51 55 66 77 83 80 76 74 81 81 77 74 76 81 80 77 75 77 77 70 60 60 60 60 59 56 53
106 57 56 31 75 47 37 1 49 21 55 63 52 49 40 44 26 20 64 39 49 11 25 53 57 52 63 65 66 61 62 77 79 77 77 79 78 76 75 70 71 79 79 67 68 71 68 60 57 60 59 53 52 47
45 49 36 47 38 61 20 33 26 31 48 48 46 53 41 44 39 63 61 42 16 18 35 36 55 74 68 56 55 55 59 71 79 74 71 80 79 72 72 72 68 65 68 73 70 68 64 61 58 58 53 51 45 40
67 16 25 30 26 51 50 38 19 38 51 42 64 56 46 33 64 67 59 34 22 28 33 49 57 64 76 75 67 57 50 64 76 78 66 74 87 87 79 74 68 58 55 67 65 67 64 62 59 55 50 45 36 32
72 22 34 19 24 42 31 53 39 33 37 65 59 58 46 65 71 73 67 34 32 25 25 41 68 78 67 62 72 61 55 65 83 80 61 54 62 78 87 89 85 66 40 42 54 63 64 59 53 44 40 37 28 11
59 42 47 30 12 55 77 62 47 51 55 41 31 41 57 72 82 83 97 32 66 50 51 56 74 83 86 81 73 68 66 66 76 86 81 68 61 56 63 76 75 55 34 39 46 45 46 42 36 27 20 16 21 9
57 39 59 13 53 33 66 45 37 36 32 13 32 43 68 66 95 55 61 79 90 89 82 74 72 80 86 83 83 89 88 92 95 96 93 78 68 62 61 66 59 52 54 44 49 49 41 34 29 27 26 22 17 12
47 31 65 41 52 47 40 35 27 24 354 4 76 88 93 70 34 83 87 90 115 114 103 96 82 90 87 78 67 58 55 39 74 92 91 91 87 56 41 51 49 42 39 55 51 59 53 44 40 29 25 17 7 1
45 24 87 54 50 44 25 16 40 26 36 60 100 111 92 74 38 26 90 92 98 99 95 95 90 94 87 85 79 66 48 41 42 61 88 86 79 63 39 38 34 34 20 25 27 35 38 35 39 36 26 24 19 7
43 77 73 62 82 95 102 82 91 79 74 69 76 93 97 104 84 46 58 66 93 108 111 102 88 74 84 75 70 70 71 51 49 59 74 87 81 55 31 21 18 13 14 16 21 22 13 10 17 10 13 8 0 352
40 64 114 106 134 170 225 27 67 76 66 71 72 89 106 118 117 115 40 58 116 113 98 110 112 102 84 80 73 70 69 95 98 79 77 70 48 29 26 35 25 8 13 22 24 12 360 2 356 352 342 343 342 335
88 81 90 107 124 169 180 133 85 101 85 101 96 68 59 82 142 137 99 24 4 137 144 123 106 113 111 91 78 81 81 84 92 56 69 49 23 8 10 21 12 6 354 350 349 345 343 336 329 331 329 326 322 320